千帆星座-142(QIANFAN-142)

导读

QIANFAN-142(NORAD编号69087)是中国千帆星座中的一颗低轨卫星互联网卫星。千帆星座是中国自主建设的全球卫星互联网星座,目标是组网1.5万颗卫星,实现全球任意地点的移动宽带网络覆盖,填补地面网络覆盖盲区。 该卫星于2026年4月7日,长征八号火箭在海南商业航天发射场执行发射任务时,随18颗千帆卫星批次入轨。此次发射后,千帆星座在轨卫星规模达到126颗,推进了中国低轨卫星互联网的建设进程,为后续全球组网奠定基础,助力实现全域无缝网络覆盖。

Basic Information
目录编号:
69087
目录名称:
QIANFAN-141
国际标识:
2026-104Q
轨道中心:
EARTH
卫星名称:
千帆星座-142
卫星全名:
千帆星座-142(QIANFAN-142)
卫星状态:
在轨 (已飞行116 天)
发射日期:
2026-05-12 UTC
国别 :
中国 (CN)
星等 :
--
Orbit Information
数据来源 国际轨道数据 AOE轨道数据
星历时间 2026-09-05T12:20:27+0800
4小时前
查看轨道信息
2026-08-30T02:00:00+0800
6天前
查看轨道信息
半长轴 7446.622km 7446.626km
偏心率 0.0002055 0.0001954
轨道倾角 88.991° 88.993°
近地点辐角 114.547° 117.718°
升交点赤经 333.278° 333.933°
平近点角 245.589° 303.250°
近地点 1066.954km 1067.033km
远地点 1070.016km 1069.945km
周期 106.586分钟 106.586分钟
每日圈数 13.510264 13.510254
Detailed Information
卫星平台:
142
覆盖范围:
全球
运营商:
上海垣信卫星科技有限公司
运营商所在国:
中国
使用方式:
暂无
Satellite Introduction
千帆星座,也被称为“G60星链”计划,是中国版“星链”的重要组成部分,旨在打造一个由1.4万多颗低轨宽频多媒体卫星构成的庞大星座。千帆星座计划由上海垣信卫星科技有限公司负责实施,于2023年启动建设。该项目是我国第二个低轨卫星大星座,旨在通过构建庞大的卫星网络,为全球用户提供高质量的通信和宽带互联网服务。
2D Orbit Map
3D Orbit Map
Orbit Altitude Analysis Chart
Orbit Inclination Analysis Chart
Orbit Comprehensive Analysis Chart
View Comprehensive Chart